Garden City, KS

1:33 PM CDT on August 18, 2017 (GMT -0500)
Garden City Regional

Weather History for KGCK - May, 2014

Change the Weather History Date:

Monday, May 5, 2014

  Actual Average Record
Temperature  
Mean Temperature 67 °F 60 °F  
Max Temperature 85 °F 73 °F 95 °F (2012)
Min Temperature 48 °F 46 °F 28 °F (2013)
Degree Days  
Heating Degree Days 0 6  
Month to date heating degree days 27 35  
Since 1 July heating degree days 5298 5097  
Cooling Degree Days 2 1  
Month to date cooling degree days 13 5  
Year to date cooling degree days 34 17  
Growing Degree Days 16 (Base 50)    
Moisture  
Dew Point 44 °F    
Average Humidity 52    
Maximum Humidity 80    
Minimum Humidity 24    
Precipitation  
Precipitation 0.00 in 0.07 in 1.73 in (2008)
Month to date precipitation 0.00 0.37  
Year to date precipitation 0.67 4.43  
Sea Level Pressure  
Sea Level Pressure 29.68 in    
Wind  
Wind Speed 12 mph (NE)    
Max Wind Speed 18 mph    
Max Gust Speed 23 mph    
Visibility 10 miles    
Events      
T = Trace of Precipitation, MM = Missing Value Source: NWS Daily Summary

Daily Weather History Graph

Daily Weather History Graph

Search for Another Location

Airport or City:

Trip Planner

Search our weather history database for the weather conditions in past years. The results will help you decide how hot, cold, wet, or windy it might be!

Date:

Astronomy

May. 05, 2014 Rise Set
Actual Time 6:42 AM CDT 8:37 PM CDT
Civil Twilight 6:13 AM CDT 9:06 PM CDT
Nautical Twilight 5:38 AM CDT 9:40 PM CDT
Astronomical Twilight 5:01 AM CDT 10:18 PM CDT
Moon 12:03 PM CDT (5/5) 1:22 AM CDT (5/5)
Length of Visible Light 14h 52m
Length of Day
13h 55m
Waxing Crescent, 37% of the Moon is Illuminated
May 5
Waxing Crescent
May 6
First Quarter
May 14
Full
May 21
Last Quarter
May 28
New

Hourly Weather History & Observations

Time (CDT) Temp. Dew Point Humidity Pressure Visibility Wind Dir Wind Speed Gust Speed Precip Events Conditions
12:54 AM 63.0 °F 42.1 °F 46% 29.60 in 10.0 mi ENE 12.7 mph - N/A   Clear
1:54 AM 62.1 °F 42.1 °F 48% 29.59 in 10.0 mi NE 10.4 mph - N/A   Clear
2:54 AM 57.9 °F 43.0 °F 58% 29.59 in 10.0 mi NNW 11.5 mph - N/A   Clear
3:54 AM 54.0 °F 43.0 °F 66% 29.60 in 10.0 mi NW 9.2 mph - N/A   Clear
4:54 AM 48.0 °F 42.1 °F 80% 29.62 in 10.0 mi WNW 8.1 mph - N/A   Clear
5:54 AM 52.0 °F 44.1 °F 74% 29.65 in 10.0 mi North 15.0 mph - N/A   Clear
6:54 AM 50.0 °F 44.1 °F 80% 29.68 in 10.0 mi NNE 17.3 mph - N/A   Clear
7:54 AM 51.1 °F 45.0 °F 80% 29.74 in 10.0 mi North 9.2 mph - N/A   Clear
8:54 AM 55.0 °F 45.0 °F 69% 29.77 in 10.0 mi North 13.8 mph - N/A   Clear
9:54 AM 59.0 °F 45.0 °F 60% 29.79 in 10.0 mi NNW 10.4 mph - N/A   Clear
10:54 AM 64.0 °F 46.0 °F 52% 29.78 in 10.0 mi NNW 11.5 mph - N/A   Clear
11:54 AM 71.1 °F 46.0 °F 41% 29.77 in 10.0 mi North 10.4 mph 17.3 mph N/A   Clear
12:54 PM 75.2 °F 46.4 °F 36% 29.84 in 10.0 mi NNE 8.1 mph - N/A   Clear
1:54 PM 79.0 °F 45.0 °F 30% 29.73 in 10.0 mi NE 8.1 mph 17.3 mph N/A   Clear
2:54 PM 82.0 °F 43.0 °F 25% 29.71 in 10.0 mi ENE 11.5 mph - N/A   Clear
3:54 PM 84.0 °F 44.1 °F 25% 29.68 in 10.0 mi ENE 11.5 mph - N/A   Clear
4:54 PM 82.9 °F 42.1 °F 24% 29.67 in 10.0 mi East 8.1 mph - N/A   Clear
5:54 PM 82.9 °F 43.0 °F 24% 29.65 in 10.0 mi East 15.0 mph - N/A   Clear
6:54 PM 82.0 °F 43.0 °F 25% 29.64 in 10.0 mi East 15.0 mph - N/A   Clear
7:54 PM 77.0 °F 46.0 °F 33% 29.65 in 10.0 mi East 11.5 mph - N/A   Clear
8:54 PM 70.0 °F 46.9 °F 44% 29.66 in 10.0 mi ENE 10.4 mph - N/A   Clear
9:54 PM 66.0 °F 46.9 °F 50% 29.65 in 10.0 mi East 11.5 mph - N/A   Clear
10:54 PM 63.0 °F 46.0 °F 54% 29.65 in 10.0 mi East 13.8 mph - N/A   Clear
11:54 PM 62.1 °F 46.9 °F 58% 29.62 in 10.0 mi East 16.1 mph - N/A   Clear